Location: ?????
(54.9266°N, 38.5527°E)
Time: 04:34:48
(UTC+00:00)

Cosmos 2112 Rocket - Pass Details

Date: 14 April 2024
Orbit: 754 x 785 km, 74.0° (Epoch: 20 May)

Event Time Altitude Azimuth Distance (km) Brightness Sun altitude
Exits shadow 01:39:35 - 205° (SSW) 3,141 6.7 -6.8°
Reaches altitude 10° 01:41:39 10° 206° (SSW) 2,336 6.0 -6.5°
Maximum altitude 01:46:59 89° 296° (WNW) 794 4.1 -5.8°
Drops below altitude 10° 01:52:23 10° 27° (NNE) 2,358 7.4 -5.1°
Sets 01:54:47 0° 28° (NNE) 3,290 8.2 -4.8°
